Time,TemperatureF,DewpointF,PressureIn,WindDirection,WindDirectionDegrees,WindSpeedMPH,WindSpeedGustMPH,Humidity,HourlyPrecipIn,Conditions,Clouds,dailyrainin,SoftwareType,DateUTC
2013-03-03 00:00:00,31.9,24.5,-100.00,North,-999,-999.0,-999.0,76,0.00,,,-99.99,HOBO +U30 +Weather +,2013-03-03 05:00:00,
2013-03-03 00:15:00,31.9,24.7,-100.00,North,-999,-999.0,-999.0,77,0.00,,,-99.99,HOBO +U30 +Weather +,2013-03-03 05:15:00,
2013-03-03 00:30:00,31.9,24.9,-100.00,North,-999,-999.0,-999.0,78,0.00,,,-99.99,HOBO +U30 +Weather +,2013-03-03 05:30:00,
2013-03-03 00:45:00,31.9,24.9,-100.00,North,-999,-999.0,-999.0,78,0.00,,,-99.99,HOBO +U30 +Weather +,2013-03-03 05:45:00,
2013-03-03 01:00:00,31.9,24.3,-100.00,North,-999,-999.0,-999.0,77,0.00,,,-99.99,HOBO +U30 +Weather +,2013-03-03 06:00:00,
2013-03-03 01:15:00,31.9,24.0,-100.00,North,-999,-999.0,-999.0,76,0.00,,,-99.99,HOBO +U30 +Weather +,2013-03-03 06:15:00,
2013-03-03 01:30:00,31.9,24.6,-100.00,North,-999,-999.0,-999.0,78,0.00,,,-99.99,HOBO +U30 +Weather +,2013-03-03 06:30:00,
2013-03-03 01:45:00,31.9,25.2,-100.00,North,-999,-999.0,-999.0,81,0.00,,,-99.99,HOBO +U30 +Weather +,2013-03-03 06:45:00,
2013-03-03 02:00:00,31.9,23.8,-100.00,North,-999,-999.0,-999.0,77,0.00,,,-99.99,HOBO +U30 +Weather +,2013-03-03 07:00:00,
2013-03-03 02:15:00,31.9,23.8,-100.00,North,-999,-999.0,-999.0,77,0.00,,,-99.99,HOBO +U30 +Weather +,2013-03-03 07:15:00,
2013-03-03 02:30:00,31.9,23.3,-100.00,North,-999,-999.0,-999.0,76,0.00,,,-99.99,HOBO +U30 +Weather +,2013-03-03 07:30:00,
2013-03-03 02:45:00,31.9,23.3,-100.00,North,-999,-999.0,-999.0,76,0.00,,,-99.99,HOBO +U30 +Weather +,2013-03-03 07:45:00,
2013-03-03 03:00:00,31.9,24.0,-100.00,North,-999,-999.0,-999.0,80,0.00,,,-99.99,HOBO +U30 +Weather +,2013-03-03 08:00:00,
2013-03-03 03:15:00,31.9,24.2,-100.00,North,-999,-999.0,-999.0,82,0.00,,,-99.99,HOBO +U30 +Weather +,2013-03-03 08:15:00,
2013-03-03 03:30:00,31.9,24.2,-100.00,North,-999,-999.0,-999.0,82,0.00,,,-99.99,HOBO +U30 +Weather +,2013-03-03 08:30:00,
2013-03-03 03:45:00,31.9,24.1,-100.00,North,-999,-999.0,-999.0,83,0.00,,,-99.99,HOBO +U30 +Weather +,2013-03-03 08:45:00,
2013-03-03 04:00:00,31.9,24.1,-100.00,North,-999,-999.0,-999.0,83,0.00,,,-99.99,HOBO +U30 +Weather +,2013-03-03 09:00:00,
2013-03-03 04:15:00,31.9,23.9,-100.00,North,-999,-999.0,-999.0,82,0.00,,,-99.99,HOBO +U30 +Weather +,2013-03-03 09:15:00,
2013-03-03 04:30:00,31.9,23.3,-100.00,North,-999,-999.0,-999.0,80,0.00,,,-99.99,HOBO +U30 +Weather +,2013-03-03 09:30:00,
2013-03-03 04:45:00,31.9,23.2,-100.00,North,-999,-999.0,-999.0,81,0.00,,,-99.99,HOBO +U30 +Weather +,2013-03-03 09:45:00,
2013-03-03 05:00:00,31.9,23.2,-100.00,North,-999,-999.0,-999.0,82,0.00,,,-99.99,HOBO +U30 +Weather +,2013-03-03 10:00:00,
2013-03-03 05:15:00,31.9,23.0,-100.00,North,-999,-999.0,-999.0,81,0.00,,,-99.99,HOBO +U30 +Weather +,2013-03-03 10:15:00,
2013-03-03 05:30:00,31.9,22.9,-100.00,North,-999,-999.0,-999.0,81,0.00,,,-99.99,HOBO +U30 +Weather +,2013-03-03 10:30:00,
2013-03-03 05:45:00,31.9,22.8,-100.00,North,-999,-999.0,-999.0,81,0.00,,,-99.99,HOBO +U30 +Weather +,2013-03-03 10:45:00,
2013-03-03 06:00:00,31.9,22.9,-100.00,North,-999,-999.0,-999.0,82,0.00,,,-99.99,HOBO +U30 +Weather +,2013-03-03 11:00:00,
2013-03-03 06:15:00,31.9,22.7,-100.00,North,-999,-999.0,-999.0,81,0.00,,,-99.99,HOBO +U30 +Weather +,2013-03-03 11:15:00,
2013-03-03 06:30:00,31.9,22.6,-100.00,North,-999,-999.0,-999.0,81,0.00,,,-99.99,HOBO +U30 +Weather +,2013-03-03 11:30:00,
2013-03-03 06:45:00,31.9,22.8,-100.00,North,-999,-999.0,-999.0,82,0.00,,,-99.99,HOBO +U30 +Weather +,2013-03-03 11:45:00,
2013-03-03 07:00:00,31.9,22.7,-100.00,North,-999,-999.0,-999.0,81,0.00,,,-99.99,HOBO +U30 +Weather +,2013-03-03 12:00:00,
2013-03-03 07:15:00,31.9,22.5,-100.00,North,-999,-999.0,-999.0,81,0.00,,,-99.99,HOBO +U30 +Weather +,2013-03-03 12:15:00,
2013-03-03 07:30:00,31.9,22.6,-100.00,North,-999,-999.0,-999.0,81,0.00,,,-99.99,HOBO +U30 +Weather +,2013-03-03 12:30:00,
2013-03-03 07:45:00,31.9,22.5,-100.00,North,-999,-999.0,-999.0,81,0.00,,,-99.99,HOBO +U30 +Weather +,2013-03-03 12:45:00,
2013-03-03 08:00:00,31.9,22.5,-100.00,North,-999,-999.0,-999.0,80,0.00,,,-99.99,HOBO +U30 +Weather +,2013-03-03 13:00:00,
2013-03-03 08:15:00,31.9,22.6,-100.00,North,-999,-999.0,-999.0,80,0.00,,,-99.99,HOBO +U30 +Weather +,2013-03-03 13:15:00,
2013-03-03 08:30:00,31.9,22.9,-100.00,North,-999,-999.0,-999.0,80,0.00,,,-99.99,HOBO +U30 +Weather +,2013-03-03 13:30:00,
2013-03-03 08:45:00,31.9,22.4,-100.00,North,-999,-999.0,-999.0,79,0.00,,,-99.99,HOBO +U30 +Weather +,2013-03-03 13:45:00,
2013-03-03 09:00:00,31.9,22.4,-100.00,North,-999,-999.0,-999.0,79,0.00,,,-99.99,HOBO +U30 +Weather +,2013-03-03 14:00:00,
2013-03-03 09:15:00,31.9,22.9,-100.00,North,-999,-999.0,-999.0,79,0.00,,,-99.99,HOBO +U30 +Weather +,2013-03-03 14:15:00,
2013-03-03 09:30:00,31.9,22.5,-100.00,North,-999,-999.0,-999.0,77,0.00,,,-99.99,HOBO +U30 +Weather +,2013-03-03 14:30:00,
2013-03-03 09:45:00,31.9,23.1,-100.00,North,-999,-999.0,-999.0,78,0.00,,,-99.99,HOBO +U30 +Weather +,2013-03-03 14:45:00,
2013-03-03 10:00:00,31.9,22.9,-100.00,North,-999,-999.0,-999.0,76,0.00,,,-99.99,HOBO +U30 +Weather +,2013-03-03 15:00:00,
2013-03-03 10:15:00,31.9,23.4,-100.00,North,-999,-999.0,-999.0,75,0.00,,,-99.99,HOBO +U30 +Weather +,2013-03-03 15:15:00,
2013-03-03 10:30:00,31.9,23.0,-100.00,North,-999,-999.0,-999.0,75,0.00,,,-99.99,HOBO +U30 +Weather +,2013-03-03 15:30:00,
2013-03-03 10:45:00,31.9,23.6,-100.00,North,-999,-999.0,-999.0,75,0.00,,,-99.99,HOBO +U30 +Weather +,2013-03-03 15:45:00,
2013-03-03 11:00:00,31.9,23.8,-100.00,North,-999,-999.0,-999.0,74,0.00,,,-99.99,HOBO +U30 +Weather +,2013-03-03 16:00:00,
2013-03-03 11:15:00,31.9,23.8,-100.00,North,-999,-999.0,-999.0,75,0.00,,,-99.99,HOBO +U30 +Weather +,2013-03-03 16:15:00,
2013-03-03 11:30:00,31.9,24.4,-100.00,North,-999,-999.0,-999.0,75,0.00,,,-99.99,HOBO +U30 +Weather +,2013-03-03 16:30:00,
2013-03-03 11:45:00,31.9,24.4,-100.00,North,-999,-999.0,-999.0,75,0.00,,,-99.99,HOBO +U30 +Weather +,2013-03-03 16:45:00,
2013-03-03 12:00:00,31.9,25.1,-100.00,North,-999,-999.0,-999.0,74,0.00,,,-99.99,HOBO +U30 +Weather +,2013-03-03 17:00:00,
2013-03-03 12:15:00,31.9,24.7,-100.00,North,-999,-999.0,-999.0,73,0.00,,,-99.99,HOBO +U30 +Weather +,2013-03-03 17:15:00,
2013-03-03 12:30:00,31.9,25.2,-100.00,North,-999,-999.0,-999.0,73,0.00,,,-99.99,HOBO +U30 +Weather +,2013-03-03 17:30:00,
2013-03-03 12:45:00,31.9,25.2,-100.00,North,-999,-999.0,-999.0,73,0.00,,,-99.99,HOBO +U30 +Weather +,2013-03-03 17:45:00,
2013-03-03 13:00:00,31.9,25.9,-100.00,North,-999,-999.0,-999.0,75,0.00,,,-99.99,HOBO +U30 +Weather +,2013-03-03 18:00:00,
2013-03-03 13:15:00,31.9,26.0,-100.00,North,-999,-999.0,-999.0,76,0.00,,,-99.99,HOBO +U30 +Weather +,2013-03-03 18:15:00,
2013-03-03 13:30:00,31.9,26.1,-100.00,North,-999,-999.0,-999.0,75,0.00,,,-99.99,HOBO +U30 +Weather +,2013-03-03 18:30:00,
2013-03-03 13:45:00,31.9,26.1,-100.00,North,-999,-999.0,-999.0,74,0.00,,,-99.99,HOBO +U30 +Weather +,2013-03-03 18:45:00,
2013-03-03 14:00:00,31.9,25.6,-100.00,North,-999,-999.0,-999.0,73,0.00,,,-99.99,HOBO +U30 +Weather +,2013-03-03 19:00:00,
2013-03-03 14:15:00,31.9,26.1,-100.00,North,-999,-999.0,-999.0,73,0.00,,,-99.99,HOBO +U30 +Weather +,2013-03-03 19:15:00,
2013-03-03 14:30:00,31.9,26.2,-100.00,North,-999,-999.0,-999.0,72,0.00,,,-99.99,HOBO +U30 +Weather +,2013-03-03 19:30:00,
2013-03-03 14:45:00,31.9,26.0,-100.00,North,-999,-999.0,-999.0,72,0.00,,,-99.99,HOBO +U30 +Weather +,2013-03-03 19:45:00,
2013-03-03 15:00:00,31.9,26.4,-100.00,North,-999,-999.0,-999.0,74,0.00,,,-99.99,HOBO +U30 +Weather +,2013-03-03 20:00:00,
2013-03-03 15:15:00,31.9,26.2,-100.00,North,-999,-999.0,-999.0,73,0.00,,,-99.99,HOBO +U30 +Weather +,2013-03-03 20:15:00,
2013-03-03 15:30:00,31.9,26.1,-100.00,North,-999,-999.0,-999.0,75,0.00,,,-99.99,HOBO +U30 +Weather +,2013-03-03 20:30:00,
2013-03-03 15:45:00,31.9,26.4,-100.00,North,-999,-999.0,-999.0,77,0.00,,,-99.99,HOBO +U30 +Weather +,2013-03-03 20:45:00,
2013-03-03 16:00:00,31.9,26.5,-100.00,North,-999,-999.0,-999.0,78,0.00,,,-99.99,HOBO +U30 +Weather +,2013-03-03 21:00:00,
2013-03-03 16:15:00,31.9,26.6,-100.00,North,-999,-999.0,-999.0,79,0.00,,,-99.99,HOBO +U30 +Weather +,2013-03-03 21:15:00,
2013-03-03 16:30:00,31.9,26.3,-100.00,North,-999,-999.0,-999.0,80,0.00,,,-99.99,HOBO +U30 +Weather +,2013-03-03 21:30:00,
2013-03-03 16:45:00,31.9,25.9,-100.00,North,-999,-999.0,-999.0,81,0.00,,,-99.99,HOBO +U30 +Weather +,2013-03-03 21:45:00,
2013-03-03 17:00:00,31.9,26.2,-100.00,North,-999,-999.0,-999.0,83,0.00,,,-99.99,HOBO +U30 +Weather +,2013-03-03 22:00:00,
2013-03-03 17:15:00,31.9,26.2,-100.00,North,-999,-999.0,-999.0,85,0.00,,,-99.99,HOBO +U30 +Weather +,2013-03-03 22:15:00,
2013-03-03 17:30:00,31.9,26.7,-100.00,North,-999,-999.0,-999.0,88,0.00,,,-99.99,HOBO +U30 +Weather +,2013-03-03 22:30:00,
2013-03-03 17:45:00,31.9,26.7,-100.00,North,-999,-999.0,-999.0,88,0.00,,,-99.99,HOBO +U30 +Weather +,2013-03-03 22:45:00,
2013-03-03 18:00:00,31.9,26.8,-100.00,North,-999,-999.0,-999.0,89,0.00,,,-99.99,HOBO +U30 +Weather +,2013-03-03 23:00:00,
2013-03-03 18:15:00,31.9,26.6,-100.00,North,-999,-999.0,-999.0,88,0.00,,,-99.99,HOBO +U30 +Weather +,2013-03-03 23:15:00,
2013-03-03 18:30:00,31.9,26.7,-100.00,North,-999,-999.0,-999.0,88,0.00,,,-99.99,HOBO +U30 +Weather +,2013-03-03 23:30:00,
2013-03-03 18:45:00,31.9,26.4,-100.00,North,-999,-999.0,-999.0,87,0.00,,,-99.99,HOBO +U30 +Weather +,2013-03-03 23:45:00,
2013-03-03 19:00:00,31.9,26.9,-100.00,North,-999,-999.0,-999.0,89,0.00,,,-99.99,HOBO +U30 +Weather +,2013-03-04 00:00:00,
2013-03-03 19:15:00,31.9,26.8,-100.00,North,-999,-999.0,-999.0,90,0.00,,,-99.99,HOBO +U30 +Weather +,2013-03-04 00:15:00,
2013-03-03 19:30:00,31.9,27.0,-100.00,North,-999,-999.0,-999.0,92,0.00,,,-99.99,HOBO +U30 +Weather +,2013-03-04 00:30:00,
2013-03-03 19:45:00,31.9,27.1,-100.00,North,-999,-999.0,-999.0,93,0.00,,,-99.99,HOBO +U30 +Weather +,2013-03-04 00:45:00,
2013-03-03 20:00:00,31.9,27.1,-100.00,North,-999,-999.0,-999.0,93,0.00,,,-99.99,HOBO +U30 +Weather +,2013-03-04 01:00:00,
2013-03-03 20:15:00,31.9,26.9,-100.00,North,-999,-999.0,-999.0,92,0.00,,,-99.99,HOBO +U30 +Weather +,2013-03-04 01:15:00,
2013-03-03 20:30:00,31.9,26.9,-100.00,North,-999,-999.0,-999.0,93,0.00,,,-99.99,HOBO +U30 +Weather +,2013-03-04 01:30:00,
2013-03-03 20:45:00,31.9,26.7,-100.00,North,-999,-999.0,-999.0,93,0.00,,,-99.99,HOBO +U30 +Weather +,2013-03-04 01:45:00,
2013-03-03 21:00:00,31.9,26.8,-100.00,North,-999,-999.0,-999.0,93,0.00,,,-99.99,HOBO +U30 +Weather +,2013-03-04 02:00:00,
2013-03-03 21:15:00,31.9,26.6,-100.00,North,-999,-999.0,-999.0,93,0.00,,,-99.99,HOBO +U30 +Weather +,2013-03-04 02:15:00,
2013-03-03 21:30:00,31.9,26.8,-100.00,North,-999,-999.0,-999.0,94,0.00,,,-99.99,HOBO +U30 +Weather +,2013-03-04 02:30:00,
2013-03-03 21:45:00,31.9,26.5,-100.00,North,-999,-999.0,-999.0,93,0.00,,,-99.99,HOBO +U30 +Weather +,2013-03-04 02:45:00,
2013-03-03 22:00:00,31.9,26.2,-100.00,North,-999,-999.0,-999.0,93,0.00,,,-99.99,HOBO +U30 +Weather +,2013-03-04 03:00:00,
2013-03-03 22:15:00,31.9,26.0,-100.00,North,-999,-999.0,-999.0,93,0.00,,,-99.99,HOBO +U30 +Weather +,2013-03-04 03:15:00,
2013-03-03 22:30:00,31.9,25.2,-100.00,North,-999,-999.0,-999.0,90,0.00,,,-99.99,HOBO +U30 +Weather +,2013-03-04 03:30:00,
2013-03-03 22:45:00,31.9,24.4,-100.00,North,-999,-999.0,-999.0,86,0.00,,,-99.99,HOBO +U30 +Weather +,2013-03-04 03:45:00,
2013-03-03 23:00:00,31.9,23.1,-100.00,North,-999,-999.0,-999.0,81,0.00,,,-99.99,HOBO +U30 +Weather +,2013-03-04 04:00:00,
2013-03-03 23:15:00,31.9,22.6,-100.00,North,-999,-999.0,-999.0,80,0.00,,,-99.99,HOBO +U30 +Weather +,2013-03-04 04:15:00,
2013-03-03 23:30:00,31.9,22.2,-100.00,North,-999,-999.0,-999.0,79,0.00,,,-99.99,HOBO +U30 +Weather +,2013-03-04 04:30:00,
2013-03-03 23:45:00,31.9,21.8,-100.00,North,-999,-999.0,-999.0,79,0.00,,,-99.99,HOBO +U30 +Weather +,2013-03-04 04:45:00,